This demonstration page uses our WeatherBlox Daily Observations layout. Learn more.

41.55636, -103.73856

Hourly Observations for January 19, 2020

Temp ( °F °C ) Dew Point ( °F °C ) Humidity (%) Winds ( mph kmh ) Pressure ( in mb ) Visibility ( mi km ) Precip ( " mm )
12:58 am 00:58 Clear 30 -1 11 -11.6 45 45 NW 12 19 30.46 1032 10 16.0934 0 0
1:58 am 01:58 Clear 28 -2.2 11 -11.9 48 48 NW 10 17 30.5 1033 10 16.0934 0 0
2:58 am 02:58 Clear 25 -3.7 12 -11.2 56 56 WNW 8 13 30.51 1033 10 16.0934 0 0
3:58 am 03:58 Clear 26 -3.2 12 -11.3 54 54 WNW 13 20 30.49 1033 10 16.0934 0 0
4:58 am 04:58 Clear 21 -6.2 11 -11.7 65 65 W 9 15 30.49 1033 10 16.0934 0 0
5:58 am 05:58 Clear 21 -6.3 11 -11.5 67 67 WSW 5 7 30.49 1033 10 16.0934 0 0
6:58 am 06:58 Partly Cloudy 21 -6.1 12 -11.2 68 68 SW 5 7 30.49 1033 10 16.0934 0 0
7:58 am 07:58 Mostly Clear 19 -7.1 10 -12 68 68 WSW 6 9 30.49 1033 10 16.0934 0 0
8:58 am 08:58 Mostly Clear 20 -6.7 11 -11.6 68 68 WSW 6 9 30.49 1033 10 16.0934 0 0
9:58 am 09:58 Clear 20 -6.5 11 -11.5 68 68 WSW 6 9 30.48 1032 10 16.0934 0 0
10:58 am 10:58 Clear 18 -7.8 11 -11.6 74 74 SW 8 13 30.5 1033 10 16.0934 0 0
11:58 am 11:58 Clear 19 -7.1 11 -11.6 71 71 W 6 9 30.5 1033 10 16.0934 0 0
12:58 pm 12:58 Clear 18 -7.6 11 -11.4 74 74 SW 5 7 30.55 1034 10 16.0934 0 0
1:58 pm 13:58 Clear 20 -6.9 11 -11.4 71 71 WSW 6 9 30.56 1035 10 16.0934 0 0
2:58 pm 14:58 Mostly Sunny 21 -5.9 14 -10.1 73 73 W 8 13 30.57 1035 10 16.0934 0 0
3:58 pm 15:58 Mostly Cloudy 26 -3.1 17 -8.5 67 67 NW 9 15 30.56 1035 10 16.0934 0 0
4:58 pm 16:58 Mostly Cloudy 34 1.3 17 -8.6 48 48 NW 14 22 30.57 1035 10 16.0934 0 0
5:58 pm 17:58 Sunny 36 2.3 15 -9.6 41 41 NW 17 28 30.57 1035 10 16.0934 0 0
6:58 pm 18:58 Sunny 41 5 13 -10.7 31 31 NW 18 30 30.52 1033 10 16.0934 0 0
7:58 pm 19:58 Sunny 43 6.2 14 -10.2 30 30 N 13 20 30.51 1033 10 16.0934 0 0
8:58 pm 20:58 Sunny 44 6.4 13 -10.7 29 29 WNW 13 20 30.48 1032 10 16.0934 0 0
9:58 pm 21:58 Sunny 44 6.4 13 -10.8 28 28 NW 17 28 30.48 1032 10 16.0934 0 0
10:58 pm 22:58 Sunny 42 5.4 13 -10.8 30 30 NW 12 19 30.5 1033 10 16.0934 0 0
11:58 pm 23:58 Clear 37 2.5 14 -10 40 40 W 9 15 30.52 1034 10 16.0934 0 0

Powered by AerisWeather